Weather History for KDVO - April, 2013

Change the Weather History Date:

Sunday, April 14, 2013

  Actual Average (KAPC) Record (KAPC)
Temperature  
Mean Temperature 56 °F 55 °F  
Max Temperature 68 °F 68 °F 79 °F (1999)
Min Temperature 44 °F 41 °F 30 °F (1921)
Degree Days  
Heating Degree Days 9    
Month to date heating degree days  
Since 1 July heating degree days  
Cooling Degree Days 0    
Month to date cooling degree days  
Year to date cooling degree days  
Growing Degree Days 6 (Base 50)    
Moisture  
Dew Point 39 °F    
Average Humidity 59    
Maximum Humidity 100    
Minimum Humidity 27    
Precipitation  
Precipitation 0.00 in - 1.58 in (1963)
Month to date precipitation  
Year to date precipitation  
Sea Level Pressure  
Sea Level Pressure 29.90 in    
Wind  
Wind Speed 11 mph (NW)    
Max Wind Speed 26 mph    
Max Gust Speed 37 mph    
Visibility 10 miles    
Events      
T = Trace of Precipitation, MM = Missing Value Source: NWS Daily Summary

Daily Weather History Graph

Daily Weather History Graph

Search for Another Location

Airport or City:

Trip Planner

Search our weather history database for the weather conditions in past years. The results will help you decide how hot, cold, wet, or windy it might be!

Date:

Astronomy

Apr. 14, 2013 Rise Set
Actual Time 6:35 AM PDT 7:45 PM PDT
Civil Twilight 6:08 AM PDT 8:13 PM PDT
Nautical Twilight 5:35 AM PDT 8:45 PM PDT
Astronomical Twilight 5:02 AM PDT 9:19 PM PDT
Moon 9:19 AM PDT (4/14) No Moon Set
Length of Visible Light 14h 04m
Length of Day
13h 10m
Waxing Crescent, 18% of the Moon is Illuminated
Apr 14
Waxing Crescent
Apr 18
First Quarter
Apr 25
Full
May 2
Last Quarter
May 9
New

Hourly Weather History & Observations

Time (PDT) Temp. Windchill Dew Point Humidity Pressure Visibility Wind Dir Wind Speed Gust Speed Precip Events Conditions
12:15 AM 51.8 °F - 37.4 °F 58% 29.91 in 10.0 mi WNW 10.4 mph - N/A   Clear
12:35 AM 51.8 °F - 37.4 °F 58% 29.91 in 10.0 mi WNW 8.1 mph - N/A   Clear
12:55 AM 51.8 °F - 37.4 °F 58% 29.90 in 10.0 mi NW 12.7 mph 18.4 mph N/A   Clear
1:15 AM 50.0 °F - 35.6 °F 58% 29.91 in 10.0 mi NNW 11.5 mph - N/A   Clear
1:35 AM 50.0 °F - 35.6 °F 58% 29.91 in 10.0 mi WNW 9.2 mph - N/A   Clear
1:55 AM 48.2 °F - 37.4 °F 66% 29.92 in 10.0 mi NNW 9.2 mph - N/A   Clear
2:15 AM 46.4 °F 42.4 °F 37.4 °F 71% 29.92 in 10.0 mi NNW 8.1 mph - N/A   Clear
2:35 AM 46.4 °F 42.4 °F 37.4 °F 71% 29.91 in 10.0 mi WNW 8.1 mph - N/A   Clear
2:55 AM 48.2 °F - 35.6 °F 62% 29.91 in 10.0 mi West 4.6 mph - N/A   Clear
3:15 AM 48.2 °F - 35.6 °F 62% 29.91 in 10.0 mi WNW 8.1 mph - N/A   Clear
3:35 AM 48.2 °F - 35.6 °F 62% 29.91 in 10.0 mi WNW 8.1 mph 16.1 mph N/A   Clear
3:55 AM 48.2 °F - 37.4 °F 66% 29.92 in 10.0 mi NNW 8.1 mph - N/A   Clear
4:15 AM 48.2 °F - 35.6 °F 62% 29.92 in 10.0 mi NNE 6.9 mph - N/A   Clear
4:35 AM 46.4 °F 44.3 °F 35.6 °F 66% 29.92 in 10.0 mi WNW 4.6 mph - N/A   Clear
4:55 AM 46.4 °F 42.9 °F 35.6 °F 66% 29.92 in 10.0 mi WNW 6.9 mph - N/A   Clear
5:15 AM 48.2 °F - 35.6 °F 62% 29.91 in 10.0 mi West 9.2 mph - N/A   Clear
5:35 AM 46.4 °F 44.3 °F 35.6 °F 66% 29.91 in 10.0 mi WNW 4.6 mph - N/A   Clear
5:55 AM 46.4 °F - 35.6 °F 66% 29.92 in 10.0 mi Calm Calm - N/A   Clear
6:15 AM 44.6 °F 43.1 °F 35.6 °F 71% 29.92 in 10.0 mi West 3.5 mph - N/A   Clear
6:35 AM 44.6 °F 40.7 °F 35.6 °F 71% 29.92 in 10.0 mi NNW 6.9 mph - N/A   Clear
6:55 AM 44.6 °F - 35.6 °F 71% 29.92 in 10.0 mi Calm Calm - N/A   Clear
7:15 AM 44.6 °F 43.1 °F 35.6 °F 71% 29.93 in 10.0 mi NNW 3.5 mph - N/A   Clear
7:35 AM 48.2 °F - 35.6 °F 62% 29.93 in 10.0 mi NW 11.5 mph - N/A   Clear
7:55 AM 48.2 °F - 35.6 °F 62% 29.94 in 10.0 mi NW 12.7 mph - N/A   Clear
8:15 AM 50.0 °F - 33.8 °F 54% 29.94 in 10.0 mi NW 11.5 mph - N/A   Clear
8:35 AM 50.0 °F - 32.0 °F 50% 29.94 in 10.0 mi NNW 13.8 mph - N/A   Clear
8:55 AM 51.8 °F - 35.6 °F 54% 29.94 in 10.0 mi NNW 10.4 mph - N/A   Clear
9:15 AM 53.6 °F - 35.6 °F 51% 29.94 in 10.0 mi North 13.8 mph - N/A   Clear
9:35 AM 53.6 °F - 37.4 °F 54% 29.94 in 10.0 mi North 11.5 mph - N/A   Clear
9:55 AM 55.4 °F - 39.2 °F 54% 29.95 in 10.0 mi NNW 13.8 mph - N/A   Clear
10:15 AM 57.2 °F - 35.6 °F 44% 29.94 in 10.0 mi NNW 11.5 mph - N/A   Clear
10:35 AM 59.0 °F - 35.6 °F 42% 29.94 in 10.0 mi North 12.7 mph - N/A   Clear
10:55 AM 59.0 °F - 33.8 °F 39% 29.94 in 10.0 mi North 10.4 mph - N/A   Clear
11:15 AM 62.6 °F - 32.0 °F 32% 29.93 in 10.0 mi NW 10.4 mph - N/A   Clear
11:35 AM 62.6 °F - 28.4 °F 27% 29.93 in 10.0 mi NW 9.2 mph - N/A   Clear
11:55 AM 64.4 °F - 30.2 °F 28% 29.93 in 10.0 mi NW 10.4 mph 16.1 mph N/A   Clear
12:15 PM 64.4 °F - 32.0 °F 30% 29.92 in 10.0 mi WNW 9.2 mph 20.7 mph N/A   Clear
12:35 PM 66.2 °F - 35.6 °F 32% 29.91 in 10.0 mi NW 9.2 mph - N/A   Clear
1:15 PM 66.2 °F - 42.8 °F 43% 29.90 in 10.0 mi WSW 12.7 mph 24.2 mph N/A   Clear
1:35 PM 68.0 °F - 41.0 °F 37% 29.89 in 10.0 mi West 12.7 mph - N/A   Clear
1:55 PM 66.2 °F - 41.0 °F 40% 29.89 in 10.0 mi WSW 16.1 mph - N/A   Clear
2:15 PM 68.0 °F - 39.2 °F 35% 29.89 in 10.0 mi West 13.8 mph 20.7 mph N/A   Clear
2:35 PM 68.0 °F - 39.2 °F 35% 29.88 in 10.0 mi West 16.1 mph 26.5 mph N/A   Clear
2:55 PM 68.0 °F - 39.2 °F 35% 29.88 in 10.0 mi West 16.1 mph 26.5 mph N/A   Clear
3:15 PM 66.2 °F - 39.2 °F 37% 29.87 in 10.0 mi West 16.1 mph 29.9 mph N/A   Clear
3:35 PM 66.2 °F - 39.2 °F 37% 29.87 in 10.0 mi West 20.7 mph 28.8 mph N/A   Clear
3:55 PM 64.4 °F - 39.2 °F 40% 29.87 in 10.0 mi West 23.0 mph 27.6 mph N/A   Clear
4:15 PM 64.4 °F - 39.2 °F 40% 29.86 in 10.0 mi West 23.0 mph 31.1 mph N/A   Clear
4:35 PM 64.4 °F - 41.0 °F 42% 29.86 in 10.0 mi West 21.9 mph 31.1 mph N/A   Clear
4:55 PM 62.6 °F - 41.0 °F 45% 29.86 in 10.0 mi West 21.9 mph 32.2 mph N/A   Clear
5:15 PM 60.8 °F - 41.0 °F 48% 29.86 in 10.0 mi West 26.5 mph 32.2 mph N/A   Clear
5:35 PM 60.8 °F - 41.0 °F 48% 29.86 in 10.0 mi West 21.9 mph 29.9 mph N/A   Clear
5:55 PM 59.0 °F - 41.0 °F 51% 29.86 in 10.0 mi West 21.9 mph 32.2 mph N/A   Clear
6:15 PM 59.0 °F - 42.8 °F 55% 29.87 in 10.0 mi West 21.9 mph 33.4 mph N/A   Clear
6:35 PM 59.0 °F - 44.6 °F 59% 29.87 in 10.0 mi West 23.0 mph 34.5 mph N/A   Clear
6:55 PM 57.2 °F - 44.6 °F 63% 29.87 in 10.0 mi WNW 24.2 mph 35.7 mph N/A   Clear
7:15 PM 57.2 °F - 44.6 °F 63% 29.87 in 10.0 mi West 24.2 mph 34.5 mph N/A   Clear
7:35 PM 55.4 °F - 44.6 °F 67% 29.87 in 10.0 mi WNW 26.5 mph 36.8 mph N/A   Clear
7:55 PM 53.6 °F - 44.6 °F 72% 29.88 in 10.0 mi West 21.9 mph 35.7 mph N/A   Clear
8:15 PM 53.6 °F - 44.6 °F 72% 29.88 in 10.0 mi West 19.6 mph 31.1 mph N/A   Clear
8:35 PM 50.0 °F - 44.6 °F 82% 29.88 in 10.0 mi WNW 12.7 mph 26.5 mph N/A   Clear
8:55 PM 50.0 °F - 44.6 °F 82% 29.89 in 10.0 mi WNW 8.1 mph 18.4 mph N/A   Clear
9:15 PM 50.0 °F - 46.4 °F 87% 29.91 in 10.0 mi WNW 4.6 mph - N/A   Partly Cloudy
9:35 PM 50.0 °F - 46.4 °F 87% 29.90 in 10.0 mi North 9.2 mph - N/A   Mostly Cloudy
9:55 PM 48.2 °F - 46.4 °F 93% 29.91 in 10.0 mi North 6.9 mph - N/A   Overcast
10:15 PM 48.2 °F - 46.4 °F 93% 29.90 in 10.0 mi North 8.1 mph - N/A   Overcast
10:35 PM 48.2 °F - 46.4 °F 93% 29.89 in 10.0 mi North 9.2 mph - N/A   Mostly Cloudy
10:55 PM 48.2 °F - 46.4 °F 93% 29.89 in 10.0 mi North 9.2 mph - N/A   Overcast
11:15 PM 48.2 °F - 48.2 °F 100% 29.89 in 10.0 mi WNW 6.9 mph - N/A   Overcast
11:35 PM 50.0 °F - 48.2 °F 94% 29.88 in 10.0 mi West 10.4 mph 16.1 mph N/A   Mostly Cloudy
11:55 PM 50.0 °F - 48.2 °F 94% 29.87 in 10.0 mi West 15.0 mph 23.0 mph N/A   Partly Cloudy